Regional Weather Roundup
Issued by NWS

Home | Current Version | Previous Version | Text Only | Print | Product List | Glossary Off
Versions: 1 2 3 4 5 6 7 8 9 10 11 12 13 14 15 16 17 18 19 20 21 22 23 24 25 26 27 28 29 30 31 32 33 34 35 36 37 38 39 40 41 42 43 44 45 46 47 48 49 50

000
ASUS45 KPSR 300200
RWRAZ

ARIZONA HOURLY REGIONAL WEATHER ROUNDUP
NATIONAL WEATHER SERVICE PHOENIX AZ
700 PM MST MON JUN 29 2015

NOTE: FAIR INDICATES FEW OR NO CLOUDS BELOW 12,000 FEET WITH NO
SIGNIFICANT WEATHER AND/OR OBSTRUCTIONS TO VISIBILITY.

AZZ001>003-036-300300-
NORTHWEST ARIZONA

CITY           SKY/WX    TMP DP  RH WIND       PRES   REMARKS
KINGMAN        CLOUDY    88  55  32 CALM      30.00R
$$

AZZ004>008-015-016-018-300300-
NORTH CENTRAL ARIZONA

CITY           SKY/WX    TMP DP  RH WIND       PRES   REMARKS
GRAND CANYON   MOCLDY    79  50  36 CALM      30.26R
WILLIAMS       MOCLDY    77  48  36 W10       30.32S
PRESCOTT       CLOUDY    72  66  81 S8        30.12F
FLAGSTAFF      NOT AVBL
PAYSON         CLOUDY    79  54  41 E6        30.15R
PAGE           PTCLDY   100  35  10 CALM      29.98R
$$

AZZ009>014-017-300300-
NORTHEAST ARIZONA

CITY           SKY/WX    TMP DP  RH WIND       PRES   REMARKS
WINSLOW        NOT AVBL
SAINT JOHNS    CLOUDY    73  58  59 SW14      30.17F
WINDOW ROCK    CLOUDY    80  51  36 N3        30.24R
SHOW LOW       CLOUDY    68  46  45 S15G25    30.28F
$$

AZZ023-300300-
GREATER PHOENIX AREA

CITY           SKY/WX    TMP DP  RH WIND       PRES   REMARKS
PHOENIX        MOCLDY   108  55  17 W14       29.75R HX 107
GLENDALE       MOCLDY   108  55  18 S14G22    29.77R HX 106
DEER VALLEY    CLOUDY   104  56  20 SW14      29.78R HX 103
SCOTTSDALE     CLOUDY   104  55  19 SW6       29.80R HX 102
MESA-FALCON    MOCLDY   104  55  20 SW12      29.78R HX 103
CHANDLER       MOCLDY   106  57  20 SW12      29.77  HX 105
$$

AZZ027-028-300300-
SOUTHWEST MARICOPA COUNTY AND PINAL COUNTY

CITY           SKY/WX    TMP DP  RH WIND       PRES   REMARKS
CASA GRANDE    CLOUDY    95  61  31 SW14      29.81R
$$

AZZ503-504-507>509-300300-
SOUTHEAST ARIZONA

CITY           SKY/WX    TMP DP  RH WIND       PRES   REMARKS
TUCSON         CLOUDY    87  63  44 CALM      29.96R
RYAN FIELD     CLEAR     90  63  40 NE6       29.94R
NOGALES        LGT RAIN  80  63  55 CALM      30.05R
SAFFORD        MOCLDY    93  52  24 E8        29.90R
$$

AZZ020-021-025-026-031-300300-
SOUTHWEST ARIZONA

CITY           SKY/WX    TMP DP  RH WIND       PRES   REMARKS
YUMA           PTCLDY   106  62  23 W9        29.74R HX 108
$$

CAZ031-033-041-043-047-048-061-300300-
SOUTHERN CALIFORNIA

CITY           SKY/WX    TMP DP  RH WIND       PRES   REMARKS
DOWNTOWN L.A.  MOSUNNY   76  59  55 VRB3      29.85F
L.A. AIRPORT   MOSUNNY   70  59  68 W9        29.86F
SAN DIEGO      PTSUNNY   72  62  71 W7        29.89S
BURBANK        MOSUNNY   85  53  33 S7        29.85S
ONTARIO        PTSUNNY   87  59  38 W15       29.85S
RIVERSIDE      MOSUNNY   89  53  29 W10       29.85R
PALM SPRINGS   MOSUNNY  107  57  19 E3        29.75S HX 107
EL CENTRO NAS  PTCLDY   107  57  19 SW3       29.71S HX 107
IMPERIAL       CLEAR    105  63  25 W5        29.69S HX 108
BLYTHE         CLEAR    109  59  19 W15       29.72R HX 110
$$

NVZ020-UTZ003-300300-
SOUTHERN NEVADA-UTAH

CITY           SKY/WX    TMP DP  RH WIND       PRES   REMARKS
LAS VEGAS      NOT AVBL
SALT LAKE CITY MOCLDY   100  44  14 NW6       29.96S
$$

NMZ009-TXZ055-300300-
NEW MEXICO-WEST TEXAS

CITY           SKY/WX    TMP DP  RH WIND       PRES   REMARKS
ALBUQUERQUE    MOCLDY    85  49  28 E21G32    30.13R
EL PASO        MOCLDY    92  48  22 NE10      29.98R
$$


........................KEY........................
SKY/WX - SKY CONDITION/WEATHER
TMP    - TEMPERATURE IN FAHRENHEIT
DP     - DEW POINT IN FAHRENHEIT
RH     - RELATIVE HUMIDITY IN PERCENT
WIND   - DIRECTION AND SPEED IN MILES PER HOUR (MPH)
VRB    - VARIABLE WIND DIRECTION
PRES   - MEAN SEA LEVEL PRESSURE IN INCHES OF MERCURY
         F - FALLING PRESSURE   R - RISING PRESSURE
         S - STEADY PRESSURE
VSB    - VISIBILITY IN MILES
HX     - HEAT INDEX IN FAHRENHEIT
WCI    - WIND CHILL INDEX IN FAHRENHEIT
TC     - TEMPERATURE IN CELSIUS WHICH IS ALSO KNOWN AS
         TEMPERATURE IN CENTIGRADE
AFB    - AIR FORCE BASE
         LUKE AFB IS LUKE AIR FORCE BASE
         DAVIS-MONTHAN IS DAVIS-MONTHAN AIR FORCE BASE
NAS    - NAVAL AIR STATION
         EL CENTRO NAS IS EL CENTRO NAVAL AIR STATION
N/A    - NOT AVAILABLE




USA.gov is the U.S. government's official web portal to all federal, state and local government web resources and services.